TimeCST,TemperatureF,Dew PointF,Humidity,Sea Level PressureIn,VisibilityMPH,Wind Direction,Wind SpeedMPH,Gust SpeedMPH,PrecipitationIn,Events,Conditions,WindDirDegrees,DateUTC
12:00 AM,71,61,63,29.91,12,South,5.8,,,,Smoke,190,2013-07-03 14:30:00
12:00 AM,71.6,60.8,69,29.89,-9999.0,South,5.8,-,N/A,,Clear,190,2013-07-03 14:30:00
12:30 AM,71,61,63,29.91,,South,5.8,,,,,180,2013-07-03 15:00:00
12:30 AM,69.8,60.8,73,29.89,-9999.0,South,5.8,-,N/A,,Clear,180,2013-07-03 15:00:00
1:00 AM,71.6,66.2,83,29.89,-9999.0,South,9.2,-,N/A,,Clear,180,2013-07-03 15:30:00
1:30 AM,69.8,64.4,83,29.89,-9999.0,South,6.9,-,N/A,,Clear,190,2013-07-03 16:00:00
2:00 AM,69.8,64.4,83,29.89,-9999.0,SSW,5.8,-,N/A,,Clear,200,2013-07-03 16:30:00
2:30 AM,71.6,66.2,83,29.89,-9999.0,South,6.9,-,N/A,,Clear,190,2013-07-03 17:00:00
3:00 AM,71,66,78,29.88,19,South,5.8,,,,Partly Cloudy,190,2013-07-03 17:30:00
3:00 AM,71.6,66.2,83,29.89,-9999.0,South,5.8,-,N/A,,Clear,190,2013-07-03 17:30:00
3:30 AM,71,65,76,29.88,,South,8.1,,,,,180,2013-07-03 18:00:00
3:30 AM,71.6,64.4,78,29.86,-9999.0,South,8.1,-,N/A,,Clear,180,2013-07-03 18:00:00
4:00 AM,69.8,64.4,83,29.89,-9999.0,SE,4.6,-,N/A,,Clear,140,2013-07-03 18:30:00
4:30 AM,69.8,64.4,83,29.89,-9999.0,SE,5.8,-,N/A,,Clear,130,2013-07-03 19:00:00
5:00 AM,69.8,59.0,68,29.89,-9999.0,SSE,6.9,-,N/A,,Clear,160,2013-07-03 19:30:00
5:30 AM,69.8,57.2,64,29.89,-9999.0,SSE,5.8,-,N/A,,Clear,160,2013-07-03 20:00:00
6:00 AM,70,51,40,29.89,12,South,8.1,,,,Smoke,170,2013-07-03 20:30:00
6:00 AM,69.8,51.8,53,29.89,-9999.0,South,8.1,-,N/A,,Clear,170,2013-07-03 20:30:00
6:30 AM,70,50,38,29.90,,SSE,8.1,,,,,160,2013-07-03 21:00:00
6:30 AM,69.8,50.0,49,29.89,-9999.0,SSE,8.1,-,N/A,,Clear,160,2013-07-03 21:00:00
7:00 AM,69.8,50.0,49,29.92,-9999.0,SE,8.1,-,N/A,,Clear,140,2013-07-03 21:30:00
7:30 AM,68.0,50.0,52,29.92,-9999.0,SE,8.1,-,N/A,,Clear,130,2013-07-03 22:00:00
8:00 AM,69.8,51.8,53,29.92,6.2,ESE,8.1,-,N/A,,Mostly Cloudy,110,2013-07-03 22:30:00
8:30 AM,71.6,53.6,53,29.92,-9999.0,East,9.2,-,N/A,,Clear,90,2013-07-03 23:00:00
9:00 AM,73,56,45,29.94,12,East,9.2,,,,Smoke,80,2013-07-03 23:30:00
9:00 AM,73.4,55.4,53,29.95,-9999.0,East,9.2,-,N/A,,Clear,80,2013-07-03 23:30:00
9:30 AM,76,58,44,29.94,,East,11.5,,,,,80,2013-07-04 00:00:00
9:30 AM,77.0,59.0,54,29.95,-9999.0,East,11.5,-,N/A,,Clear,80,2013-07-04 00:00:00
10:00 AM,77.0,59.0,54,29.95,-9999.0,East,12.7,-,N/A,,Clear,90,2013-07-04 00:30:00
10:30 AM,78.8,59.0,51,29.92,-9999.0,East,10.4,-,N/A,,Clear,80,2013-07-04 01:00:00
11:00 AM,78.8,59.0,51,29.92,-9999.0,East,9.2,-,N/A,,Clear,80,2013-07-04 01:30:00
11:30 AM,80.6,59.0,48,29.92,-9999.0,ENE,11.5,-,N/A,,Clear,70,2013-07-04 02:00:00
12:00 PM,81,60,39,29.91,19,East,9.2,,,,Smoke,80,2013-07-04 02:30:00
12:00 PM,80.6,60.8,51,29.89,6.2,East,9.2,-,N/A,,Partly Cloudy,80,2013-07-04 02:30:00
12:30 PM,82,59,36,29.89,,ESE,9.2,,,,,110,2013-07-04 03:00:00
12:30 PM,82.4,59.0,45,29.89,6.2,ESE,9.2,-,N/A,,Partly Cloudy,110,2013-07-04 03:00:00
1:00 PM,82.4,59.0,45,29.86,6.2,ESE,6.9,-,N/A,,Partly Cloudy,120,2013-07-04 03:30:00
1:30 PM,82.4,59.0,45,29.86,6.2,ENE,6.9,-,N/A,,Scattered Clouds,70,2013-07-04 04:00:00
2:00 PM,82.4,59.0,45,29.83,-9999.0,West,8.1,-,N/A,,Clear,260,2013-07-04 04:30:00
2:30 PM,86.0,60.8,43,29.83,-9999.0,West,10.4,-,N/A,,Clear,280,2013-07-04 05:00:00
3:00 PM,84,62,38,29.81,19,West,9.2,,,,Partly Cloudy,280,2013-07-04 05:30:00
3:00 PM,84.2,62.6,48,29.80,-9999.0,West,9.2,-,N/A,,Clear,280,2013-07-04 05:30:00
3:30 PM,84,63,38,29.81,,NW,10.4,,,,,310,2013-07-04 06:00:00
3:30 PM,84.2,62.6,48,29.80,-9999.0,NW,10.4,-,N/A,,Clear,310,2013-07-04 06:00:00
4:00 PM,82.4,62.6,51,29.80,-9999.0,NW,10.4,-,N/A,,Clear,320,2013-07-04 06:30:00
4:30 PM,80.6,62.6,54,29.80,-9999.0,NNW,10.4,-,N/A,,Clear,340,2013-07-04 07:00:00
5:00 PM,80.6,64.4,58,29.80,-9999.0,North,10.4,-,N/A,,Clear,350,2013-07-04 07:30:00
5:30 PM,80.6,66.2,61,29.80,-9999.0,North,11.5,-,N/A,,Clear,350,2013-07-04 08:00:00
6:00 PM,79,67,58,29.83,19,North,10.4,,,,Partly Cloudy,0,2013-07-04 08:30:00
6:00 PM,78.8,66.2,65,29.83,-9999.0,North,10.4,-,N/A,,Clear,360,2013-07-04 08:30:00
6:30 PM,78,67,61,29.83,,North,9.2,,,,,0,2013-07-04 09:00:00
6:30 PM,78.8,68.0,69,29.83,-9999.0,North,9.2,-,N/A,,Clear,360,2013-07-04 09:00:00
7:00 PM,77.0,68.0,74,29.83,-9999.0,North,6.9,-,N/A,,Clear,360,2013-07-04 09:30:00
7:30 PM,77.0,68.0,74,29.83,-9999.0,North,5.8,-,N/A,,Clear,360,2013-07-04 10:00:00
8:00 PM,77.0,68.0,74,29.86,-9999.0,North,5.8,-,N/A,,Clear,350,2013-07-04 10:30:00
8:30 PM,77.0,68.0,74,29.86,-9999.0,North,1.2,-,N/A,,Clear,350,2013-07-04 11:00:00
9:00 PM,76,68,69,29.88,19,SW,1.2,,,,Partly Cloudy,230,2013-07-04 11:30:00
9:00 PM,75.2,68.0,78,29.89,-9999.0,SW,1.2,-,N/A,,Clear,230,2013-07-04 11:30:00
9:30 PM,74,68,76,29.89,,WNW,5.8,,,,,290,2013-07-04 12:00:00
9:30 PM,73.4,68.0,83,29.89,-9999.0,WNW,5.8,-,N/A,,Clear,290,2013-07-04 12:00:00
10:00 PM,73.4,68.0,83,29.89,-9999.0,WSW,5.8,-,N/A,,Clear,250,2013-07-04 12:30:00
10:30 PM,71.6,68.0,88,29.89,-9999.0,WSW,5.8,-,N/A,,Clear,240,2013-07-04 13:00:00
11:00 PM,71.6,68.0,88,29.89,-9999.0,NNE,2.3,-,N/A,,Clear,20,2013-07-04 13:30:00
11:30 PM,75.2,69.8,83,29.89,-9999.0,SW,4.6,-,N/A,,Clear,220,2013-07-04 14:00:00